Weather History for KBRO - October, 2013

Change the Weather History Date:

Saturday, October 19, 2013

  Actual Average Record
Temperature  
Mean Temperature 74 °F 76 °F  
Max Temperature 80 °F 85 °F 93 °F (2004)
Min Temperature 67 °F 66 °F 45 °F (1989)
Degree Days  
Heating Degree Days 0 0  
Month to date heating degree days 0 0  
Since 1 July heating degree days 0 0  
Cooling Degree Days 9 11  
Month to date cooling degree days 230 237  
Year to date cooling degree days 3800 3648  
Growing Degree Days 24 (Base 50)    
Moisture  
Dew Point 69 °F    
Average Humidity 84    
Maximum Humidity 100    
Minimum Humidity 67    
Precipitation  
Precipitation T in 0.11 in 2.63 in (1951)
Month to date precipitation 0.84 2.56  
Year to date precipitation 22.77 23.29  
Sea Level Pressure  
Sea Level Pressure 29.99 in    
Wind  
Wind Speed 11 mph (North)    
Max Wind Speed 28 mph    
Max Gust Speed 39 mph    
Visibility 10 miles    
Events      
T = Trace of Precipitation, MM = Missing Value Source: NWS Daily Summary

Daily Weather History Graph

Daily Weather History Graph

Search for Another Location

Airport or City:

Trip Planner

Search our weather history database for the weather conditions in past years. The results will help you decide how hot, cold, wet, or windy it might be!

Date:

Astronomy

Oct. 19, 2013 Rise Set
Actual Time 7:30 AM CDT 6:57 PM CDT
Civil Twilight 7:07 AM CDT 7:21 PM CDT
Nautical Twilight 6:40 AM CDT 7:48 PM CDT
Astronomical Twilight 6:13 AM CDT 8:14 PM CDT
Moon 7:34 PM CDT (10/19) 8:04 AM CDT (10/19)
Length of Visible Light 12h 13m
Length of Day
11h 27m
Waxing Gibbous, 99% of the Moon is Illuminated
Oct 19
Waxing Gibbous
Oct 26
Last Quarter
Nov 3
New
Nov 9
First Quarter
Nov 17
Full

Hourly Weather History & Observations

Time (CDT) Temp. Dew Point Humidity Pressure Visibility Wind Dir Wind Speed Gust Speed Precip Events Conditions
12:53 AM 75.9 °F 75.0 °F 97% 29.89 in 10.0 mi Calm Calm - N/A   Mostly Cloudy
1:53 AM 77.0 °F 75.9 °F 96% 29.88 in 10.0 mi SSW 3.5 mph - N/A   Overcast
2:53 AM 78.1 °F 75.9 °F 93% 29.88 in 10.0 mi SW 3.5 mph - N/A   Mostly Cloudy
3:53 AM 77.0 °F 75.0 °F 94% 29.88 in 10.0 mi Calm Calm - N/A   Scattered Clouds
4:53 AM 75.9 °F 75.0 °F 97% 29.89 in 10.0 mi NNW 4.6 mph - N/A   Mostly Cloudy
5:53 AM 75.9 °F 73.9 °F 94% 29.91 in 10.0 mi NW 4.6 mph - 0.00 in   Scattered Clouds
6:53 AM 75.0 °F 72.0 °F 90% 29.93 in 10.0 mi NNW 8.1 mph - N/A   Scattered Clouds
7:24 AM 73.4 °F 71.6 °F 94% 29.95 in 10.0 mi North 9.2 mph - N/A   Mostly Cloudy
7:32 AM 73.4 °F 73.4 °F 100% 29.96 in 10.0 mi North 11.5 mph - N/A   Mostly Cloudy
7:53 AM 73.9 °F 73.0 °F 97% 29.96 in 10.0 mi North 9.2 mph 20.7 mph N/A   Overcast
8:53 AM 73.9 °F 72.0 °F 93% 29.99 in 10.0 mi North 13.8 mph 23.0 mph N/A   Overcast
9:07 AM 73.4 °F 71.6 °F 94% 30.00 in 10.0 mi North 13.8 mph 21.9 mph N/A   Overcast
9:22 AM 75.2 °F 71.6 °F 89% 30.00 in 10.0 mi North 10.4 mph 17.3 mph N/A   Overcast
9:53 AM 77.0 °F 70.0 °F 79% 30.02 in 10.0 mi NNE 19.6 mph 27.6 mph N/A   Overcast
10:53 AM 78.1 °F 69.1 °F 74% 30.03 in 10.0 mi NNE 20.7 mph 32.2 mph N/A   Overcast
11:53 AM 78.1 °F 66.9 °F 68% 30.04 in 10.0 mi NNE 20.7 mph 36.8 mph 0.00 in   Mostly Cloudy
12:53 PM 77.0 °F 66.9 °F 71% 30.04 in 10.0 mi NNE 24.2 mph 29.9 mph N/A   Mostly Cloudy
1:36 PM 78.8 °F 64.4 °F 61% 30.03 in 10.0 mi NNE 20.7 mph 32.2 mph N/A   Scattered Clouds
1:53 PM 78.1 °F 66.0 °F 66% 30.03 in 10.0 mi NNE 21.9 mph 27.6 mph N/A   Mostly Cloudy
2:42 PM 77.0 °F 64.4 °F 65% 30.02 in 10.0 mi NNE 21.9 mph 28.8 mph N/A   Overcast
2:53 PM 78.1 °F 66.0 °F 66% 30.01 in 10.0 mi NNE 18.4 mph 31.1 mph N/A   Overcast
3:25 PM 78.8 °F 64.4 °F 61% 30.01 in 10.0 mi NNE 17.3 mph 28.8 mph N/A   Mostly Cloudy
3:53 PM 75.9 °F 64.9 °F 69% 30.01 in 10.0 mi NNE 16.1 mph 29.9 mph N/A   Mostly Cloudy
4:53 PM 73.9 °F 64.0 °F 71% 30.02 in 10.0 mi NNE 13.8 mph 25.3 mph N/A   Overcast
5:53 PM 73.0 °F 64.0 °F 73% 30.03 in 10.0 mi North 12.7 mph 20.7 mph N/A   Overcast
6:53 PM 72.0 °F 64.0 °F 76% 30.04 in 10.0 mi North 11.5 mph 18.4 mph N/A   Overcast
7:53 PM 72.0 °F 63.0 °F 73% 30.04 in 10.0 mi North 10.4 mph 17.3 mph N/A   Overcast
8:53 PM 71.1 °F 64.0 °F 78% 30.06 in 10.0 mi NNW 6.9 mph - N/A   Mostly Cloudy
9:53 PM 69.1 °F 63.0 °F 81% 30.06 in 10.0 mi NNW 6.9 mph - N/A   Partly Cloudy
10:53 PM 68.0 °F 62.1 °F 81% 30.06 in 10.0 mi North 4.6 mph - N/A   Scattered Clouds
11:53 PM 68.0 °F 63.0 °F 84% 30.06 in 10.0 mi NW 4.6 mph - N/A   Clear